FW8920 Weather Reports


time (UTC)temp
F
wind
direction
speed
knots
gust
knots
rain 1hr
in
rain 24hr
in
rain mn
in
humidity
%
barometer
mb
20260504214038 69 0 0.9 4.3 0.00 0.00 0.00 35 1007.5
20260504213538 69 241 0.9 7.8 0.00 0.00 0.00 36 1007.4
20260504213103 69 95 0.9 7.8 0.00 0.00 0.00 35 1007.4
20260504212539 69 309 1.7 5.2 0.00 0.00 0.00 36 1007.4
20260504212044 69 337 0.9 4.3 0.00 0.00 0.00 35 1007.5
20260504211551 69 217 1.7 4.3 0.00 0.00 0.00 35 1007.4
20260504211039 69 294 0.9 5.2 0.00 0.00 0.00 35 1007.4
20260504210540 69 263 1.7 5.2 0.00 0.00 0.00 36 1007.5
20260504210051 69 234 0.9 7.0 0.00 0.00 0.00 36 1007.5
20260504205542 69 266 1.7 7.0 0.00 0.00 0.00 36 1007.5
20260504205040 69 219 1.7 7.0 0.00 0.00 0.00 35 1007.5
20260504204556 69 250 2.6 7.0 0.00 0.00 0.00 35 1007.6
20260504204040 69 269 1.7 7.0 0.00 0.00 0.00 35 1007.6
20260504203540 69 313 1.7 7.8 0.00 0.00 0.00 36 1007.5
20260504203052 69 177 2.6 7.8 0.00 0.00 0.00 35 1007.6
20260504202540 69 243 1.7 7.8 0.00 0.00 0.00 35 1007.7
20260504202039 70 0 1.7 7.8 0.00 0.00 0.00 34 1007.6
20260504201554 70 0 0.9 8.7 0.00 0.00 0.00 34 1007.6
20260504201043 70 184 1.7 8.7 0.00 0.00 0.00 33 1007.6
20260504200540 70 191 1.7 7.8 0.00 0.00 0.00 34 1007.7
20260504200052 70 238 2.6 7.8 0.00 0.00 0.00 34 1007.7
20260504195540 69 0 3.5 7.0 0.00 0.00 0.00 33 1007.6
20260504195040 70 254 1.7 7.0 0.00 0.00 0.00 33 1007.7
20260504194556 70 284 2.6 7.0 0.00 0.00 0.00 34 1007.9
20260504194040 70 192 2.6 7.0 0.00 0.00 0.00 33 1007.7
20260504193542 69 244 2.6 7.8 0.00 0.00 0.00 35 1007.8
20260504193045 70 331 1.7 7.8 0.00 0.00 0.00 34 1007.9
20260504192540 70 262 1.7 7.8 0.00 0.00 0.00 33 1007.7
20260504192044 70 209 1.7 6.1 0.00 0.00 0.00 32 1007.8
20260504191550 70 223 1.7 6.1 0.00 0.00 0.00 33 1007.7
20260504191041 70 260 1.7 5.2 0.00 0.00 0.00 33 1007.8
20260504190541 69 258 1.7 6.1 0.00 0.00 0.00 34 1007.9
20260504190053 69 309 0.9 6.1 0.00 0.00 0.00 33 1007.7
20260504185540 69 218 1.7 8.7 0.00 0.00 0.00 34 1007.8
20260504185040 69 327 0.9 8.7 0.00 0.00 0.00 33 1007.9
20260504184550 69 225 3.5 8.7 0.00 0.00 0.00 32 1007.9
20260504184041 69 259 1.7 8.7 0.00 0.00 0.00 35 1008.2
20260504183540 69 182 2.6 7.0 0.00 0.00 0.00 31 1008.2
20260504183053 69 198 2.6 8.7 0.00 0.00 0.00 32 1008.1
20260504182540 69 302 2.6 8.7 0.00 0.00 0.00 33 1008.1
20260504182040 69 297 0.9 7.8 0.00 0.00 0.00 32 1008.3
20260504181552 69 297 2.6 8.7 0.00 0.00 0.00 32 1008.3
20260504181040 69 225 2.6 8.7 0.00 0.00 0.00 32 1008.3
20260504180540 69 271 3.5 7.8 0.00 0.00 0.00 32 1008.3
20260504180052 69 246 1.7 7.0 0.00 0.00 0.00 33 1008.4
20260504175540 69 202 2.6 7.8 0.00 0.00 0.00 32 1008.3
20260504175041 69 284 2.6 7.8 0.00 0.00 0.00 32 1008.2
20260504174554 69 217 3.5 7.0 0.00 0.00 0.00 31 1008.3
20260504174041 68 248 3.5 7.0 0.00 0.00 0.00 32 1008.3
20260504173540 68 203 1.7 7.0 0.00 0.00 0.00 32 1008.3
20260504173052 68 330 1.7 7.0 0.00 0.00 0.00 33 1008.7
20260504172539 68 0 1.7 7.0 0.00 0.00 0.00 33 1008.5
20260504172039 67 259 2.6 7.8 0.00 0.00 0.00 35 1008.5
20260504171558 68 299 3.5 7.8 0.00 0.00 0.00 33 1008.6
20260504171040 68 231 1.7 7.8 0.00 0.00 0.00 33 1008.8
20260504170542 68 246 3.5 7.8 0.00 0.00 0.00 33 1008.9
20260504151039 63 194 1.7 7.8 0.00 0.00 0.00 41 1009.6
20260504150539 63 247 3.5 7.8 0.00 0.00 0.00 41 1010.0
20260504150108 62 252 1.7 9.6 0.00 0.00 0.00 41 1010.1
20260504141039 61 277 1.7 6.1 0.00 0.00 0.00 44 1010.3
20260504140539 61 230 1.7 5.2 0.00 0.00 0.00 42 1010.0
20260504130540 56 225 1.7 5.2 0.00 0.00 0.00 49 1010.6
20260504110542 38 0 0.0 0.0 0.00 0.00 0.00 85 1011.1
20260504100540 36 0 0.0 0.0 0.00 0.00 0.00 81 1011.1
20260504081552 40 0 0.0 0.0 0.00 0.00 0.00 81 1010.9
20260504081039 40 0 0.0 0.0 0.00 0.00 0.00 82 1010.8
20260504080538 40 0 0.0 0.0 0.00 0.00 0.00 82 1010.8
20260504080109 40 0 0.0 0.0 0.00 0.00 0.00 82 1010.8
20260504050542 38 0 0.0 0.0 0.00 0.00 0.00 78 1010.9
20260504045541 38 0 0.0 0.0 0.00 0.00 0.00 79 1010.9
20260504045041 38 0 0.0 0.0 0.00 0.00 0.00 79 1010.9
20260504044548 38 0 0.0 0.0 0.00 0.00 0.00 79 1010.9
20260504044041 38 0 0.0 0.0 0.00 0.00 0.00 78 1011.0
20260504043541 38 0 0.0 0.0 0.00 0.00 0.00 78 1011.1
20260504043051 37 0 0.0 0.0 0.00 0.00 0.00 79 1011.2
20260504042541 37 0 0.0 0.0 0.00 0.00 0.00 78 1011.1
20260504042042 37 0 0.0 0.0 0.00 0.00 0.00 78 1011.2
20260504041549 36 0 0.0 0.9 0.00 0.00 0.00 77 1011.1
20260504041041 36 0 0.0 1.7 0.00 0.00 0.00 79 1011.1
20260504040546 35 0 0.0 1.7 0.00 0.00 0.00 77 1010.9
20260504040110 35 0 0.0 1.7 0.00 0.00 0.00 78 1010.9
20260504035539 35 0 0.0 0.9 0.00 0.00 0.00 79 1010.7
20260504035041 35 0 0.0 0.9 0.00 0.00 0.00 78 1010.7
20260504034550 35 0 0.0 0.9 0.00 0.00 0.00 79 1010.7
20260504034038 35 0 0.0 0.0 0.00 0.00 0.00 79 1010.6
20260504033538 35 0 0.0 0.0 0.00 0.00 0.00 79 1010.6
20260504033050 35 0 0.0 0.0 0.00 0.00 0.00 80 1010.6
20260504032541 35 0 0.0 0.0 0.00 0.00 0.00 80 1010.6
20260504032038 35 0 0.0 0.0 0.00 0.00 0.00 81 1010.6
20260504031556 34 0 0.0 0.0 0.00 0.00 0.00 81 1010.6
20260504031041 34 0 0.0 0.0 0.00 0.00 0.00 81 1010.5
20260504030540 34 0 0.0 0.0 0.00 0.00 0.00 80 1010.5
20260504030050 34 0 0.0 0.0 0.00 0.00 0.00 80 1010.5
20260504025540 34 0 0.0 0.0 0.00 0.00 0.00 80 1010.6
20260504025045 34 0 0.0 0.0 0.00 0.00 0.00 80 1010.5
20260504024553 34 0 0.0 0.0 0.00 0.00 0.00 79 1010.5
20260504024042 35 0 0.0 0.0 0.00 0.00 0.00 79 1010.4
20260504023542 35 0 0.0 0.0 0.00 0.00 0.00 79 1010.4
20260504023100 35 0 0.0 0.0 0.00 0.00 0.00 79 1010.3
20260504022546 35 0 0.0 0.0 0.00 0.00 0.00 78 1010.4
20260504022042 35 0 0.0 0.0 0.00 0.00 0.00 78 1010.4
20260504021552 36 0 0.0 0.0 0.00 0.00 0.00 77 1010.4
20260504021041 36 0 0.0 0.0 0.00 0.00 0.00 77 1010.3
20260504020541 36 0 0.0 0.0 0.00 0.00 0.00 77 1010.3
20260504020048 36 0 0.0 0.0 0.00 0.00 0.00 77 1010.3
20260504015539 37 0 0.0 0.0 0.00 0.00 0.00 76 1010.2
20260504015044 37 0 0.0 0.0 0.00 0.00 0.00 75 1010.2
20260504014601 37 0 0.0 0.0 0.00 0.00 0.00 75 1010.2
20260504014038 37 0 0.0 0.0 0.00 0.00 0.00 75 1010.1
20260504013542 38 0 0.0 0.0 0.00 0.00 0.00 74 1010.1
20260504013052 38 0 0.0 0.0 0.00 0.00 0.00 73 1010.2
20260504012542 38 0 0.0 0.0 0.00 0.00 0.00 72 1010.1
20260504012043 39 0 0.0 0.0 0.00 0.00 0.00 72 1010.0
20260504011549 39 0 0.0 0.0 0.00 0.00 0.00 71 1010.0
20260504011041 39 0 0.0 0.0 0.00 0.00 0.00 70 1010.0
20260504010538 40 0 0.0 0.0 0.00 0.00 0.00 69 1009.9
20260504010053 40 0 0.0 0.0 0.00 0.00 0.00 68 1009.8
20260504005544 40 0 0.0 0.0 0.00 0.00 0.00 67 1009.6
20260504005039 41 0 0.0 0.0 0.00 0.00 0.00 65 1009.6
20260504004553 41 0 0.0 0.0 0.00 0.00 0.00 65 1009.5
20260504004038 42 0 0.0 0.0 0.00 0.00 0.00 65 1009.5
20260504003538 42 0 0.0 0.0 0.00 0.00 0.00 64 1009.5
20260504003055 43 0 0.0 0.0 0.00 0.00 0.00 60 1009.5
20260504002538 43 0 0.0 0.0 0.00 0.00 0.00 60 1009.3
20260504002039 44 0 0.0 0.0 0.00 0.00 0.00 60 1009.3
20260504001604 44 0 0.0 0.0 0.00 0.00 0.00 59 1009.3
20260504001039 45 0 0.0 0.0 0.00 0.00 0.00 55 1009.2
20260504000539 45 0 0.0 0.0 0.00 0.00 0.00 53 1009.2
20260504000106 46 0 0.0 0.0 0.00 0.00 0.00 53 1009.1
20260503235538 46 0 0.0 0.0 0.00 0.00 0.00 52 1009.0
20260503235045 47 0 0.0 0.9 0.00 0.00 0.00 51 1009.0
20260503234549 47 0 0.0 1.7 0.00 0.00 0.00 52 1009.0
20260503234039 48 0 0.0 2.6 0.00 0.00 0.00 49 1009.0
20260503233540 48 0 0.0 2.6 0.00 0.00 0.00 47 1008.9
20260503233047 48 292 0.0 2.6 0.00 0.00 0.00 45 1008.9
20260503232538 49 0 0.0 2.6 0.00 0.00 0.00 44 1008.9
20260503232038 49 0 0.0 2.6 0.00 0.00 0.00 45 1008.9
20260503231548 49 325 0.0 3.5 0.00 0.00 0.00 43 1008.8
20260503231038 49 312 0.9 3.5 0.00 0.00 0.00 43 1008.7
20260503230540 50 270 0.9 3.5 0.00 0.00 0.00 43 1008.7
20260503230053 50 350 0.9 4.3 0.00 0.00 0.00 42 1008.7
20260503225540 50 317 0.0 4.3 0.00 0.01 0.00 42 1008.6
20260503225039 50 294 0.9 4.3 0.00 0.01 0.00 43 1008.6
20260503224552 50 264 0.9 2.6 0.00 0.01 0.00 42 1008.5
20260503224039 50 0 0.0 2.6 0.00 0.01 0.00 44 1008.6
20260503223539 50 231 0.0 2.6 0.00 0.01 0.00 43 1008.5
20260503223051 50 300 0.0 2.6 0.00 0.01 0.00 44 1008.5
20260503222538 50 297 0.0 5.2 0.00 0.01 0.00 43 1008.5
20260503222042 50 263 0.0 6.1 0.00 0.01 0.00 44 1008.5
20260503221556 50 0 0.0 6.1 0.00 0.01 0.00 43 1008.5
20260503221039 50 299 2.6 7.8 0.00 0.01 0.00 41 1008.3
20260503220539 50 288 1.7 7.8 0.00 0.01 0.00 42 1008.2
20260503220053 50 265 2.6 7.8 0.00 0.01 0.00 42 1008.4
20260503215539 50 306 0.9 6.1 0.00 0.01 0.00 42 1008.2
20260503215039 50 281 0.9 6.1 0.00 0.01 0.00 42 1008.1
20260503214545 50 314 1.7 6.1 0.00 0.01 0.00 42 1008.2